Location: Mountain_View
(35.6670°N, 81.4000°W)
Time: 22:30:14
(UTC-04:00)

Daily predictions for brighter satellites

Satellite Brightness Start Highest point End
(mag) Time Altitude Azimuth Time Altitude Azimuth Time Altitude Azimuth
Cosmos 1844 Rocket 3.8 20:55:16 10° SSE 20:59:33 23° E 21:03:51 10° NE
Meteor 2-3 Rocket 3.8 20:57:32 10° S 21:03:04 62° E 21:08:36 10° NNE
CZ-2D R/B 3.2 21:00:48 10° SSE 21:04:36 87° E 21:08:26 10° N
Cosmos 1869 Rocket 4.1 21:02:07 10° SSW 21:06:30 66° W 21:10:52 10° N
Meteor 1-26 Rocket 4.3 21:01:05 10° N 21:06:58 79° E 21:12:51 10° SSE
H-2A R/B 3.6 21:04:48 10° ESE 21:07:57 20° ENE 21:11:04 10° NNE
NOSS 2-2 (C) 3.6 21:08:07 10° SSW 21:12:00 50° ESE 21:16:19 10° NE
Cosmos 2263 Rocket 3.3 21:09:02 10° SW 21:14:31 50° WNW 21:20:00 10° N
FENGYUN 3A 3.8 21:10:04 10° S 21:15:28 81° WSW 21:20:54 10° NNW
Cosmos 1340 Rocket 2.7 21:11:56 10° S 21:15:53 76° E 21:19:54 10° NNE
NOSS 8 (A) 4.4 21:15:22 10° SSW 21:18:56 70° ESE 21:22:30 10° NE
Resurs 01 Rocket 4.2 21:15:45 10° SW 21:19:07 21° W 21:22:30 10° NW
Cosmos 1624 Rocket 4.1 21:15:14 10° S 21:20:20 55° ESE 21:25:31 10° NNE
Envisat 3.9 21:17:01 10° SE 21:21:29 32° ENE 21:25:59 10° N
Atlas Centaur 2 1.8 21:20:40 10° WSW 21:23:53 33° S 21:26:35 14° ESE
Cosmos 1939 Rocket 3.7 21:20:38 11° SE 21:23:55 32° ENE 21:27:24 10° N
BREEZE-M DEB (TANK) 2.9 21:22:31 10° NNW 21:24:25 34° NE 21:26:55 13° ESE
Cosmos 1782 4.0 21:22:23 10° NNE 21:25:45 25° ENE 21:28:19 14° SE
Okean 1-7 3.5 21:23:58 10° NNW 21:28:13 61° W 21:32:28 10° S
SJ-11-01 4.4 21:23:57 10° SSE 21:28:37 59° ENE 21:33:18 10° N
Sich 1 Rocket 4.5 21:26:50 10° SSE 21:30:51 31° E 21:34:54 10° NNE
NOSS 2-2 (E) 3.5 21:26:52 10° SSW 21:30:57 87° WNW 21:35:35 10° NNE
SPOT 5 4.1 21:28:50 13° SE 21:32:41 31° ENE 21:37:19 10° N
ALOS 3.3 21:28:37 10° S 21:33:05 45° W 21:37:34 10° NNW
Meteor 2-10 Rocket 3.8 21:29:29 10° N 21:35:17 69° E 21:40:56 10° SSE
ERBS 3.7 21:33:13 10° NNW 21:36:17 29° NE 21:38:24 16° E
Cosmos 1674 Rocket 4.2 21:34:41 10° N 21:38:53 39° E 21:41:52 17° SE
Cosmos 1606 4.2 21:36:55 10° NNE 21:39:58 21° ENE 21:41:22 18° ESE
Cosmos 407 Rocket 4.5 21:37:13 10° N 21:41:55 32° ENE 21:45:03 18° ESE
Cosmos 1892 2.9 21:40:25 10° SSW 21:44:13 71° W 21:48:03 10° N
Cosmos 1452 Rocket 4.2 21:39:39 10° SSE 21:44:18 33° E 21:49:00 10° NE
ERS-1 Rocket 3.0 21:42:25 10° SSE 21:47:27 89° WSW 21:52:32 10° NNW
GPS 2-05 Rocket1 3.7 21:48:47 10° SW 21:52:03 31° SSE 21:52:52 28° SE
Cosmos 1190 Rocket 4.3 21:48:34 10° N 21:53:37 51° ENE 21:56:41 23° SE
PSLV R/B 3.9 21:53:30 10° WNW 21:56:53 51° NNE 21:58:46 23° E
Meteor 2-6 Rocket 4.3 21:52:47 10° N 21:58:44 68° E 22:03:01 19° SSE
Coronas F rocket 3.4 21:58:05 10° SW 22:00:25 27° W 22:02:45 10° NNW
Abrixas rocket 2.9 21:59:34 10° WNW 22:02:52 47° SW 22:04:01 32° S
Cosmos 2154 Rocket 4.0 21:59:09 10° S 22:05:12 63° E 22:11:19 10° NNE
Cosmos 1975 Rocket 4.2 22:03:36 10° NNE 22:07:08 24° ENE 22:07:44 23° E
USA 234 3.6 22:01:48 10° ENE 22:07:53 41° SE 22:13:55 10° SSW
MetOp-B 4.3 22:07:40 26° SE 22:10:33 58° ENE 22:15:48 10° N
deb Chang Zheng 4 4.2 22:06:33 10° N 22:10:54 60° WNW 22:15:15 10° SSW
CZ-4B R/B 3.8 22:07:38 10° NNE 22:12:20 42° E 22:13:59 31° SE
Cosmos 1908 Rocket 3.4 22:10:37 21° S 22:13:31 76° E 22:17:57 10° N
COSMOS 2406 3.3 22:11:04 10° NNW 22:16:49 74° WSW 22:20:21 24° S
Cosmos 1733 Rocket 4.5 22:14:35 10° SSW 22:18:42 37° W 22:22:49 10° N
USA 245 3.8 22:19:19 31° ENE 22:19:19 31° ENE 22:22:10 10° N
TIMED 4.4 22:17:05 14° SSW 22:20:46 84° ESE 22:25:09 10° NNE
NOSS 5 (C) 4.2 22:17:57 10° SSW 22:21:38 89° ESE 22:24:47 10° NNE
ARGOS 3.6 22:19:51 32° ESE 22:21:43 43° ENE 22:26:45 10° N
STPSAT 2 (USA 217) 4.5 22:17:45 10° SSW 22:22:14 89° ESE 22:26:45 10° NNE
Cosmos 1378 Rocket 3.5 22:19:00 10° N 22:23:16 61° E 22:24:18 45° SE
Cosmos 676 Rocket 4.1 22:18:27 10° N 22:23:35 57° ENE 22:25:21 38° SE
Cosmos 1184 Rocket 3.3 22:24:37 44° ENE 22:24:37 44° ENE 22:27:20 10° NNE
ATLAS 5 CENTAUR R/B 2.6 22:19:18 10° NW 22:25:26 72° WSW 22:28:52 29° SSE
CZ-3C R/B 3.7 22:07:11 10° WSW 22:28:04 27° SSW 22:30:49 23° SSE
CZ-4 R/B 4.0 22:25:20 10° NNE 22:29:49 45° E 22:30:16 44° ESE
Cosmos 1174 4.4 22:27:07 10° N 22:29:36 31° NE 22:29:36 31° NE
Cosmos 1954 Rocket 4.3 22:25:29 10° N 22:30:33 50° ENE 22:31:54 40° ESE
Cosmos 1862 3.4 22:28:46 32° SSW 22:30:34 79° W 22:34:39 10° N
Cosmos 2278 Rocket 2.1 22:27:11 15° S 22:31:59 72° ESE 22:37:39 10° NNE
Cosmos 1844 4.0 22:29:19 10° SSW 22:35:02 70° WNW 22:40:49 10° NNE
Cosmos 1825 2.3 22:37:57 46° SSW 22:38:56 70° W 22:42:45 10° N
CENTAUR R/B 3.7 22:31:21 10° NW 22:39:02 51° WSW 22:44:20 22° S
Cosmos 2084 3.1 22:37:52 31° SW 22:39:38 84° WNW 22:43:28 10° NNE
SL-27 R/B 3.7 22:38:38 10° NW 22:42:01 36° WSW 22:42:44 32° SW
Cosmos 1844 Rocket 3.9 22:37:45 10° SW 22:43:06 43° WNW 22:48:27 10° N
H-2A R/B 3.6 22:41:12 17° SSW 22:43:45 30° W 22:47:33 10° NW
COSMOS 2487 3.3 22:41:55 10° N 22:44:48 42° NE 22:44:48 42° NE
COS B Rocket 4.4 22:41:51 10° NNW 22:45:46 42° W 22:47:17 28° SW
CZ-4C R/B 4.3 22:51:49 35° NE 22:51:49 35° NE 22:54:47 10° N
YAOGAN 6 3.3 22:52:00 46° WSW 22:52:04 46° W 22:55:27 10° NNW
Cosmos 1408 3.7 22:52:38 35° WSW 22:53:29 42° W 22:56:59 10° N
Cosmos 2082 Rocket 3.4 22:49:47 10° N 22:54:33 27° ENE 22:55:25 26° ENE
Meteor 1-27 Rocket 4.4 22:53:01 10° NNW 22:58:22 49° W 23:00:52 29° SSW
Cosmos 2218 Rocket 4.0 22:59:14 50° SSE 23:00:49 67° E 23:07:10 10° NNE
Cosmos 2297 3.6 23:02:58 62° SE 23:03:27 65° ESE 23:09:07 10° NNE
Okean 2 Rocket 3.5 23:02:49 49° SW 23:03:40 59° W 23:08:02 10° N
Landsat 7 3.8 23:05:01 67° ENE 23:05:01 67° ENE 23:09:44 10° N
Cosmos 1023 Rocket 4.3 23:00:13 10° NNW 23:05:20 71° ENE 23:05:34 69° E
H-2A R/B 2.2 23:05:41 56° E 23:06:05 58° ENE 23:11:21 10° N
SL-08 R/B 4.4 23:06:34 54° SSE 23:08:04 75° E 23:14:32 10° N
DELTA 2 DEB (DPAF) 4.2 23:09:30 67° NE 23:09:30 67° NE 23:13:36 10° N
Cosmos 1420 Rocket 4.2 23:08:59 42° SW 23:10:45 70° WNW 23:15:59 10° NNE
Cosmos 1238 Rocket 4.1 23:08:10 10° NNW 23:10:41 29° W 23:10:41 29° W
Cosmos 1242 Rocket 3.6 23:08:04 10° NNW 23:10:42 44° NNW 23:10:42 44° NNW
Atlas Centaur 2 3.7 23:08:53 10° WSW 23:09:16 12° WSW 23:09:16 12° WSW
NOAA 11 4.5 23:14:14 49° SSW 23:15:24 60° W 23:20:51 10° NNW
Terra 2.0 23:21:18 61° NE 23:21:18 61° NE 23:25:29 10° N
Spot 4 4.4 23:21:25 47° NE 23:21:25 47° NE 23:25:30 10° N
SPOT 1/Viking Rocket 4.4 23:20:10 37° SW 23:21:17 42° W 23:26:13 10° NNW
Cosmos 1727 Rocket 4.0 23:15:19 10° N 23:21:25 61° E 23:21:45 60° E
IGS 5A 4.4 23:25:17 43° NNE 23:25:17 43° NNE 23:28:12 10° N
Cosmos 1959 Rocket 4.4 23:22:49 55° SSW 23:24:15 78° W 23:30:22 10° N
ASTEX 1 4.4 23:22:24 10° NNE 23:25:46 37° NE 23:25:46 37° NE
Timation 2 Rocket 3.7 23:28:49 10° NNW 23:34:49 84° WSW 23:35:01 82° SSW
Cosmos 614 Rocket 4.1 23:29:57 10° NNW 23:34:27 70° N 23:34:27 70° N
Cosmos 1140 Rocket 3.9 23:33:10 10° NNW 23:37:56 54° W 23:37:56 54° W
DNEPR-1 R/B 4.3 23:36:56 10° NNW 23:41:08 57° NNW 23:41:08 57° NNW
Meteor 1-20 Rocket 4.3 23:43:42 71° NNE 23:43:42 71° NNE 23:48:41 10° N
Meteor 1-25 Rocket 4.3 23:47:59 76° W 23:48:00 76° W 23:53:52 10° N
Cosmos 1339 Rocket 4.3 23:44:05 10° N 23:50:09 86° NE 23:50:09 86° NE
USA 234 4.0 23:44:37 10° NE 23:50:54 51° NW 23:57:09 10° WSW
